Location: Heisler
(52.6701°N, 112.2239°W)
Time: 07:19:39
(UTC+00:00)

Envisat - Pass Details

Date: 30 November 2021
Orbit: 764 x 766 km, 98.2° (Epoch: 25 January)

Event Time Altitude Azimuth Distance (km) Brightness Sun altitude
Rises 11:20:11 0° 25° (NNE) 3,248 6.7 -34.8°
Reaches altitude 10° 11:23:08 10° 42° (NE) 2,315 6.0 -34.3°
Maximum altitude 11:26:49 20° 88° (E) 1,737 5.5 -33.8°
Drops below altitude 10° 11:30:27 10° 135° (SE) 2,302 5.9 -33.2°
Sets 11:33:22 0° 152° (SSE) 3,222 6.5 -32.8°
